O'Neill, NE

8:15 PM CST on February 11, 2016 (GMT -0600)
The O'Neill Municipal-Baker

Weather History for KONL - March, 2014

Change the Weather History Date:

Sunday, March 9, 2014

  Actual Average Record
Temperature  
Mean Temperature 54 °F -  
Max Temperature 73 °F 46 °F 73 °F (2014)
Min Temperature 35 °F 23 °F -2 °F (1998)
Degree Days  
Heating Degree Days 11    
Growing Degree Days 4 (Base 50)    
Moisture  
Dew Point 23 °F    
Average Humidity 40    
Maximum Humidity 75    
Minimum Humidity 9    
Precipitation  
Precipitation 0.00 in - - ()
Sea Level Pressure  
Sea Level Pressure 29.89 in    
Wind  
Wind Speed 10 mph (WSW)    
Max Wind Speed 20 mph    
Max Gust Speed 25 mph    
Visibility 10 miles    
Events      
Averages and records for this station are not official NWS values.
T = Trace of Precipitation, MM = Missing Value Source: NWS Daily Summary

Daily Weather History Graph

Daily Weather History Graph

Search for Another Location

Airport or City:

Trip Planner

Search our weather history database for the weather conditions in past years. The results will help you decide how hot, cold, wet, or windy it might be!

Date:

Astronomy

Mar. 09, 2014 Rise Set
Actual Time 7:56 AM CDT 7:34 PM CDT
Civil Twilight 7:28 AM CDT 8:02 PM CDT
Nautical Twilight 6:56 AM CDT 8:34 PM CDT
Astronomical Twilight 6:23 AM CDT 9:07 PM CDT
Moon 1:23 PM CDT (3/9) 3:29 AM CDT (3/9)
Length of Visible Light 12h 33m
Length of Day
11h 37m
First Quarter, 61% of the Moon is Illuminated
Mar 9
First Quarter
Mar 16
Full
Mar 23
Last Quarter
Mar 30
New
Apr 7
First Quarter

Hourly Weather History & Observations

Time (CDT) Temp. Windchill Dew Point Humidity Pressure Visibility Wind Dir Wind Speed Gust Speed Precip Events Conditions
12:17 AM 35.6 °F 29.2 °F 28.4 °F 75% 30.11 in 10.0 mi SW 8.1 mph - N/A   Clear
12:36 AM 35.6 °F 28.6 °F 28.4 °F 75% 30.09 in 10.0 mi SSW 9.2 mph - N/A   Clear
12:57 AM 35.6 °F 29.2 °F 28.4 °F 75% 30.08 in 10.0 mi SSW 8.1 mph - N/A   Clear
1:16 AM 37.4 °F 31.4 °F 28.4 °F 70% 30.07 in 10.0 mi SSW 8.1 mph - N/A   Clear
1:37 AM 37.4 °F 31.4 °F 28.4 °F 70% 30.07 in 10.0 mi SSW 8.1 mph - N/A   Clear
1:56 AM 37.4 °F 31.4 °F 28.4 °F 70% 30.07 in 10.0 mi SSW 8.1 mph - N/A   Clear
3:16 AM 37.4 °F 32.1 °F 28.4 °F 70% 30.06 in 10.0 mi SSW 6.9 mph - N/A   Clear
3:37 AM 35.6 °F 30.7 °F 28.4 °F 75% 30.05 in 10.0 mi SSW 5.8 mph - N/A   Clear
3:58 AM 35.6 °F 29.9 °F 28.4 °F 75% 30.04 in 10.0 mi SSW 6.9 mph - N/A   Clear
4:16 AM 35.6 °F 28.6 °F 28.4 °F 75% 30.03 in 10.0 mi SSW 9.2 mph - N/A   Clear
4:36 AM 35.6 °F 28.6 °F 28.4 °F 75% 30.01 in 10.0 mi SSW 9.2 mph - N/A   Clear
4:56 AM 35.6 °F 29.9 °F 28.4 °F 75% 30.01 in 10.0 mi SSW 6.9 mph - N/A   Clear
5:16 AM 35.6 °F 28.6 °F 28.4 °F 75% 30.00 in 10.0 mi SSW 9.2 mph - N/A   Clear
5:36 AM 35.6 °F 28.6 °F 28.4 °F 75% 29.99 in 10.0 mi SW 9.2 mph - N/A   Clear
5:57 AM 35.6 °F 28.6 °F 28.4 °F 75% 29.99 in 10.0 mi SSW 9.2 mph - N/A   Clear
6:17 AM 35.6 °F 28.6 °F 28.4 °F 75% 29.98 in 10.0 mi SSW 9.2 mph - N/A   Clear
6:37 AM 35.6 °F 28.0 °F 28.4 °F 75% 29.97 in 10.0 mi SSW 10.4 mph - N/A   Clear
6:57 AM 37.4 °F 29.8 °F 28.4 °F 70% 29.96 in 10.0 mi SSW 11.5 mph - N/A   Clear
7:16 AM 37.4 °F 29.3 °F 28.4 °F 70% 29.95 in 10.0 mi SSW 12.7 mph - N/A   Clear
7:37 AM 39.2 °F 30.5 °F 28.4 °F 65% 29.93 in 10.0 mi SSW 16.1 mph - N/A   Clear
7:57 AM 39.2 °F 30.5 °F 28.4 °F 65% 29.91 in 10.0 mi SW 16.1 mph - N/A   Clear
8:16 AM 41.0 °F 33.1 °F 28.4 °F 61% 29.91 in 10.0 mi SW 15.0 mph - N/A   Clear
8:36 AM 42.8 °F 35.1 °F 28.4 °F 57% 29.91 in 10.0 mi SW 16.1 mph - N/A   Clear
8:56 AM 42.8 °F 35.4 °F 28.4 °F 57% 29.91 in 10.0 mi WSW 15.0 mph - N/A   Clear
9:16 AM 44.6 °F 37.4 °F 28.4 °F 53% 29.91 in 10.0 mi SW 16.1 mph 19.6 mph N/A   Clear
9:37 AM 46.4 °F 39.8 °F 28.4 °F 50% 29.90 in 10.0 mi SW 16.1 mph - N/A   Clear
9:56 AM 48.2 °F - 28.4 °F 46% 29.90 in 10.0 mi WSW 15.0 mph 20.7 mph N/A   Clear
10:17 AM 51.8 °F - 26.6 °F 38% 29.90 in 10.0 mi SW 15.0 mph 18.4 mph N/A   Clear
10:37 AM 51.8 °F - 26.6 °F 38% 29.89 in 10.0 mi WSW 16.1 mph - N/A   Clear
10:56 AM 53.6 °F - 26.6 °F 35% 29.88 in 10.0 mi WSW 18.4 mph 24.2 mph N/A   Clear
11:17 AM 55.4 °F - 24.8 °F 31% 29.88 in 10.0 mi WSW 19.6 mph 25.3 mph N/A   Clear
11:37 AM 57.2 °F - 24.8 °F 29% 29.87 in 10.0 mi West 18.4 mph 25.3 mph N/A   Clear
11:57 AM 59.0 °F - 24.8 °F 27% 29.87 in 10.0 mi West 16.1 mph 23.0 mph N/A   Clear
12:16 PM 60.8 °F - 23.0 °F 23% 29.88 in 10.0 mi West 13.8 mph 21.9 mph N/A   Clear
12:37 PM 62.6 °F - 23.0 °F 22% 29.87 in 10.0 mi West 15.0 mph 21.9 mph N/A   Clear
12:57 PM 64.4 °F - 21.2 °F 19% 29.86 in 10.0 mi West 15.0 mph 20.7 mph N/A   Clear
1:17 PM 66.2 °F - 21.2 °F 18% 29.86 in 10.0 mi West 11.5 mph 19.6 mph N/A   Clear
1:36 PM 66.2 °F - 21.2 °F 18% 29.85 in 10.0 mi West 13.8 mph 18.4 mph N/A   Clear
1:57 PM 69.8 °F - 19.4 °F 15% 29.84 in 10.0 mi West 11.5 mph - N/A   Clear
2:17 PM 69.8 °F - 19.4 °F 15% 29.83 in 10.0 mi West 15.0 mph 18.4 mph N/A   Clear
2:37 PM 69.8 °F - 17.6 °F 14% 29.83 in 10.0 mi West 13.8 mph 18.4 mph N/A   Clear
2:56 PM 71.6 °F - 15.8 °F 12% 29.82 in 10.0 mi West 12.7 mph - N/A   Clear
3:17 PM 71.6 °F - 14.0 °F 11% 29.81 in 10.0 mi West 10.4 mph - N/A   Clear
3:37 PM 73.4 °F - 12.2 °F 10% 29.81 in 10.0 mi West 9.2 mph - N/A   Clear
3:57 PM 73.4 °F - 12.2 °F 10% 29.81 in 10.0 mi West 10.4 mph 16.1 mph N/A   Clear
4:17 PM 73.4 °F - 10.4 °F 9% 29.81 in 10.0 mi West 11.5 mph - N/A   Clear
4:37 PM 73.4 °F - 10.4 °F 9% 29.81 in 10.0 mi West 9.2 mph - N/A   Clear
4:56 PM 73.4 °F - 10.4 °F 9% 29.81 in 10.0 mi West 11.5 mph 16.1 mph N/A   Clear
5:17 PM 73.4 °F - 10.4 °F 9% 29.81 in 10.0 mi West 9.2 mph - N/A   Clear
5:39 PM 73.4 °F - 10.4 °F 9% 29.80 in 10.0 mi West 9.2 mph 16.1 mph N/A   Clear
5:59 PM 71.6 °F - 14.0 °F 11% 29.80 in 10.0 mi West 6.9 mph - N/A   Clear
6:17 PM 69.8 °F - 17.6 °F 14% 29.80 in - West 6.9 mph - N/A   Unknown
6:37 PM 66.2 °F - 17.6 °F 15% 29.80 in 10.0 mi West 5.8 mph - N/A   Clear
6:57 PM 64.4 °F - 19.4 °F 18% 29.80 in 10.0 mi West 6.9 mph - N/A   Clear
7:16 PM 62.6 °F - 19.4 °F 19% 29.80 in 10.0 mi WSW 5.8 mph - N/A   Clear
7:38 PM 60.8 °F - 19.4 °F 20% 29.80 in 10.0 mi SW 5.8 mph - N/A   Clear
7:56 PM 57.2 °F - 19.4 °F 23% 29.80 in 10.0 mi SW 5.8 mph - N/A   Clear
8:17 PM 57.2 °F - 19.4 °F 23% 29.80 in 10.0 mi WSW 3.5 mph - N/A   Clear
8:36 PM 57.2 °F - 19.4 °F 23% 29.80 in 10.0 mi WSW 4.6 mph - N/A   Clear
8:57 PM 55.4 °F - 21.2 °F 26% 29.80 in 10.0 mi SW 4.6 mph - N/A   Clear
9:16 PM 53.6 °F - 21.2 °F 28% 29.79 in 10.0 mi SW 5.8 mph - N/A   Clear
9:37 PM 51.8 °F - 24.8 °F 35% 29.80 in 10.0 mi SW 5.8 mph - N/A   Clear
9:57 PM 50.0 °F - 24.8 °F 37% 29.80 in 10.0 mi WSW 5.8 mph - N/A   Clear
10:17 PM 55.4 °F - 23.0 °F 29% 29.79 in 10.0 mi WSW 8.1 mph - N/A   Clear
10:37 PM 55.4 °F - 23.0 °F 29% 29.80 in 10.0 mi WSW 8.1 mph - N/A   Clear
10:57 PM 55.4 °F - 23.0 °F 29% 29.80 in 10.0 mi West 9.2 mph - N/A   Clear
11:17 PM 53.6 °F - 24.8 °F 33% 29.80 in 10.0 mi West 9.2 mph - N/A   Clear
11:39 PM 53.6 °F - 26.6 °F 35% 29.80 in 10.0 mi West 9.2 mph - N/A   Clear
11:57 PM 51.8 °F - 26.6 °F 38% 29.80 in 10.0 mi West 5.8 mph - N/A   Clear
12:17 AM 53.6 °F - 26.6 °F 35% 29.80 in 10.0 mi West 10.4 mph - N/A   Clear
12:37 AM 53.6 °F - 26.6 °F 35% 29.80 in 10.0 mi WNW 10.4 mph - N/A   Clear
12:57 AM 51.8 °F - 28.4 °F 41% 29.80 in 10.0 mi WNW 9.2 mph - N/A   Clear